Weather History for Resolute CS, NT

Change the Weather History Date:

Friday, October 18, 2013

  Actual Average Record
Temperature  
Mean Temperature 25 °F -  
Max Temperature 27 °F - - ()
Min Temperature 23 °F - - ()
Degree Days  
Heating Degree Days 40    
Moisture  
Dew Point 23 °F    
Average Humidity 91    
Maximum Humidity 96    
Minimum Humidity 84    
Precipitation  
Precipitation 0.00 in - - ()
Sea Level Pressure  
Sea Level Pressure 29.86 in    
Wind  
Wind Speed 13 mph ()    
Max Wind Speed 20 mph    
Max Gust Speed -    
T = Trace of Precipitation, MM = Missing Value Source: Averaged Metar Reports

Daily Weather History Graph

Daily Weather History Graph

Search for Another Location

Airport:

Trip Planner

Search our weather history database for the weather conditions in past years. The results will help you decide how hot, cold, wet, or windy it might be!

Date:

Astronomy

Oct. 18, 2013 Rise Set
Actual Time 8:25 AM MDT 3:41 PM MDT
Civil Twilight 6:58 AM MDT 5:09 PM MDT
Nautical Twilight 5:25 AM MDT 6:41 PM MDT
Astronomical Twilight 3:48 AM MDT 8:17 PM MDT
Moon 3:09 PM MDT 8:10 AM MDT
Length of Visible Light 10h 11m
Length of Day
7h 16m
Full, 100% of the Moon is Illuminated
Oct 18
Full
Oct 18
Full
Oct 26
Last Quarter
Nov 3
New
Nov 9
First Quarter

Hourly Weather History & Observations

Time (MDT) Temp. Windchill Dew Point Humidity Pressure Visibility Wind Dir Wind Speed Gust Speed Precip Events Conditions
12:00 AM 25 °F - 24 °F 93% 29.79 in - ESE 19.6 mph - -  
12:00 AM 25.0 °F 10.9 °F 23.7 °F 95% 29.79 in - ESE 19.6 mph - N/A   Unknown
1:00 AM 24.6 °F 11.3 °F 23.2 °F 94% 29.80 in - ESE 17.3 mph - N/A   Unknown
2:00 AM 25.3 °F 13.1 °F 24.3 °F 96% 29.81 in - ESE 15.0 mph - N/A   Unknown
3:00 AM 25.0 °F 11.7 °F 23.7 °F 95% 29.81 in - ESE 17.3 mph - N/A   Unknown
4:00 AM 25.2 °F 12.4 °F 24.1 °F 96% 29.81 in - ESE 16.1 mph - N/A   Unknown
5:00 AM 25.7 °F 13.5 °F 24.6 °F 96% 29.83 in - ESE 15.0 mph - N/A   Unknown
6:00 AM 26 °F - 25 °F 92% 29.84 in - East 11.5 mph - -  
6:00 AM 25.5 °F 14.9 °F 24.6 °F 96% 29.84 in - East 11.5 mph - N/A   Unknown
7:00 AM 24.4 °F 13.5 °F 23.4 °F 96% 29.85 in - East 11.5 mph - N/A   Unknown
8:00 AM 24.6 °F 12.7 °F 23.0 °F 94% 29.84 in - East 13.8 mph - N/A   Unknown
9:00 AM 25.0 °F 12.2 °F 23.2 °F 93% 29.84 in - East 16.1 mph - N/A   Unknown
10:00 AM 25.3 °F 12.2 °F 23.0 °F 91% 29.85 in - East 17.3 mph - N/A   Unknown
11:00 AM 25.5 °F 13.3 °F 22.8 °F 89% 29.86 in - East 15.0 mph - N/A   Unknown
12:00 PM 26 °F - 23 °F 85% 29.86 in - East 17.3 mph - -  
12:00 PM 26.1 °F 13.1 °F 23.4 °F 90% 29.86 in - East 17.3 mph - N/A   Unknown
1:00 PM 24.8 °F 12.9 °F 22.3 °F 90% 29.86 in - East 13.8 mph - N/A   Unknown
2:00 PM 25.5 °F 14.3 °F 23.4 °F 92% 29.87 in - East 12.7 mph - N/A   Unknown
3:00 PM 25.2 °F 12.9 °F 22.8 °F 91% 29.87 in - ENE 15.0 mph - N/A   Unknown
4:00 PM 25.3 °F 15.3 °F 23.0 °F 91% 29.89 in - ENE 10.4 mph - N/A   Unknown
5:00 PM 25.9 °F 14.8 °F 23.7 °F 92% 29.89 in - ENE 12.7 mph - N/A   Unknown
6:00 PM 26 °F - 24 °F 88% 29.90 in - ESE 9.2 mph - -  
6:00 PM 26.4 °F 17.3 °F 23.9 °F 90% 29.90 in - ESE 9.2 mph - N/A   Unknown
7:00 PM 26.2 °F 20.7 °F 23.4 °F 89% 29.90 in - ESE 4.6 mph - N/A   Unknown
8:00 PM 25.9 °F 21.7 °F 22.5 °F 87% 29.90 in - East 3.5 mph - N/A   Unknown
9:00 PM 26.6 °F 22.6 °F 22.8 °F 86% 29.90 in - South 3.5 mph - N/A   Unknown
10:00 PM 27.0 °F 21.6 °F 22.8 °F 84% 29.90 in - NE 4.6 mph - N/A   Unknown
11:00 PM 24.8 °F 17.9 °F 21.6 °F 87% 29.91 in - NE 5.8 mph - N/A   Unknown